DMSP 5D-2 F13 DEB, 40605

Orbit data source: Space-Track

DMSP 5D-2 F13 DEB, 40605 is space debris in SSO originally from a launch on Fri, 24 Mar 1995 UTC launched from the Air Force Western Test Range (AFWTR). Debris objects in space refer to the collection of defunct objects orbiting the Earth. Examples of debris include non-operational satellites, rocket bodies, and fragments generated from explosions, collisions, or faulty payload assembly.

Loading next visibility...
Identifier
40605, 1995-015FC
Orbit
SSO
Country
Flag of USUS
Related business
Manufacturer
Unknown
Mission
Spacecraft
Bus & Motor
Unknown
Mass
Unknown
Launch date (UTC)
1995-03-24 (31 years ago)
Launch vehicle
Unknown
Launch site
Air Force Western Test Range (AFWTR)
Object type
Payload
Rocket body
Debris
Shape & HBR
Unknown shape, 0.1 m
Radar Cross Section
Medium (>0.1 m² and <1 m²)

Expand to show TLE details & history
Last TLE update: 9 hours ago

TLE from 9 hours ago
0 DMSP 5D-2 F13 DEB
1 40605U 95015FC  26150.43555603  .00017506  00000-0  35237-2 0  9991
2 40605  98.6230 218.0614 0016076 279.4898  80.4484 14.61527024579960
Epoch: 2026-05-30T10:27Z
TLE epoch observation values (Epoch: 2026-05-30T10:27:12.040Z)
Latitude
-0.00011°
Longitude
173.30963°
Altitude
689.354 km
Speed
7.513 km/s
True Right ascension
14h 32m 14s
True Declination
0° 00' 00"
Sunlit
Object was in full shadow at epoch
Visualization orbit readout
Latitude
Unknown
Longitude
Unknown
Altitude
Unknown
Speed
Unknown
Apparent Right ascension
Unknown
Apparent Declination
Unknown
Sunlit
N/A
Visualization observer readout
Local Sidereal Time
04:53:12
Azimuth
Unknown
Elevation
Unknown
Doppler factor
Unknown
Orbital elements
Apogee altitude
696.702 km
Perigee altitude
673.992 km
Semi-major axis
7,063.484 km
Eccentricity
0.00161
Inclination
98.623°
RAAN
218.0614°
Arg. of periapsis
279.4898°
True anomaly
80.63012°
Mean anomaly
80.4484°
Eccentric anomaly
80.53926°
Mean motion
3.65607 °/min
Orbital period
98.47 mins
BSTAR
0.0035237

Documentation

Showing up to 5 results
|